Wind_Speed
9 10 10 11 12 12 12 12 12 12 12 12 13 13 13 13 14 14 15 15 16 17 17 17 17 17 18 18 17 17 18 18 18 18 19 19 19 20 20 21 21 21 21
11 11 12 13 14 14 14 13 14 14 14 14 14 14 15 15 16 16 17 17 17 18 18 17 17 18 18 19 19 19 19 19 19 20 21 21 21 21 21 22 22 22 23
12 12 13 14 15 15 16 15 15 15 15 15 15 16 17 17 17 17 18 18 18 18 18 18 19 19 20 20 21 21 21 21 21 22 22 22 23 23 23 23 23 23 23
14 14 14 15 16 17 17 16 16 16 16 16 17 18 18 18 18 19 19 19 19 19 20 20 21 21 22 22 22 22 22 22 23 23 23 24 24 24 24 24 24 24 24
15 16 16 17 17 18 18 17 16 16 17 18 18 19 20 20 19 20 20 21 20 21 21 21 21 22 22 23 23 23 24 24 24 25 25 25 26 26 26 25 25 26 26
17 17 18 18 19 19 20 19 18 17 18 19 19 20 21 21 21 22 22 22 22 23 23 23 23 23 23 24 24 25 25 25 25 26 26 26 27 27 27 27 27 27 27
18 19 20 20 21 21 21 21 19 19 19 20 20 21 22 22 22 22 23 23 24 24 24 24 25 25 25 25 25 26 26 26 26 26 26 27 28 28 28 28 28 29 28
20 20 21 22 22 23 23 23 22 21 21 21 21 21 22 23 23 23 25 25 24 24 25 25 25 26 26 26 26 26 27 27 27 27 28 28 29 29 30 29 29 29 30
22 22 22 22 24 24 25 24 22 22 22 21 21 22 23 23 24 25 26 26 25 25 26 25 26 26 27 27 27 27 27 27 27 28 28 29 29 30 30 30 30 30 30
24 24 24 24 25 26 25 24 24 24 24 22 23 23 24 25 26 26 27 27 27 27 27 27 27 27 27 27 27 28 28 28 28 29 29 29 29 29 30 30 30 30 31
26 25 25 26 27 26 26 26 26 26 25 25 25 25 26 27 27 28 28 28 28 28 27 27 28 28 28 28 28 28 28 28 29 29 29 30 30 30 30 30 30 30 31
28 28 27 27 27 27 27 27 27 27 27 27 27 27 28 28 29 29 29 28 28 28 28 28 28 28 29 30 29 29 30 29 29 29 29 30 31 31 31 31 31 32 32
29 29 28 28 28 27 27 28 28 28 28 28 28 28 29 29 30 29 28 27 27 28 28 29 29 30 30 30 30 30 30 30 30 30 30 30 31 31 31 31 32 33 33
28 28 27 28 28 28 29 29 29 28 29 29 30 30 30 31 31 29 29 28 28 28 28 29 30 30 30 31 32 31 31 31 31 31 32 32 32 32 32 32 33 33 33
29 29 29 29 29 29 29 29 30 29 29 30 30 31 31 31 31 32 32 31 30 30 30 30 31 31 32 32 32 32 32 32 32 33 33 33 34 34 33 34 34 34 34
29 29 29 29 29 29 30 30 30 30 31 31 31 31 31 31 31 32 32 32 33 33 33 32 33 33 33 33 32 32 32 33 34 35 35 35 35 35 34 35 35 35 35
28 29 29 29 29 30 30 30 30 31 31 32 33 33 33 32 33 33 34 34 34 34 34 34 34 35 35 34 34 34 34 35 36 37 37 37 37 37 36 36 36 37 37
28 28 28 29 29 30 30 31 31 31 32 33 33 34 34 34 34 34 35 35 35 35 36 36 35 35 35 35 35 35 36 36 37 37 37 38 38 37 37 38 38 38 38
28 28 28 28 29 29 30 30 31 32 32 33 34 35 35 35 35 35 35 35 35 35 36 36 36 36 36 35 35 36 37 37 38 37 38 38 38 38 38 38 38 37 38
28 28 29 28 28 29 29 30 30 31 32 33 34 34 34 34 34 35 35 36 36 36 36 37 37 37 37 36 36 37 38 38 38 38 39 39 39 39 38 37 37 37 37
29 29 29 29 29 29 29 30 30 30 31 32 33 33 33 34 34 34 35 35 35 35 36 37 37 37 38 38 38 38 38 38 38 38 39 39 39 38 38 37 36 36 36
28 29 29 29 30 30 29 29 30 30 31 32 32 32 33 33 33 34 35 35 36 35 35 36 37 37 38 38 38 38 38 38 38 38 39 38 38 38 38 38 38 37 37
27 27 27 28 28 28 28 28 29 29 30 30 31 32 33 33 34 35 35 35 35 35 35 36 36 37 37 38 38 39 39 38 38 38 38 38 38 38 38 38 38 38 37
26 26 26 26 27 27 27 27 28 29 29 29 30 31 32 32 33 34 34 34 34 35 36 36 37 37 38 38 39 39 38 38 39 39 39 39 39 38 38 38 38 37 37
25 26 26 27 27 27 27 28 28 28 28 29 30 31 31 32 33 33 33 34 35 35 36 37 37 37 38 38 39 38 38 39 39 39 39 39 38 39 39 39 38 38 38
25 26 26 26 26 26 27 28 28 28 28 29 30 31 31 32 33 33 34 34 35 36 36 37 37 37 37 37 37 38 38 38 38 38 38 38 38 38 38 38 38 38 38
Wind_Direction
293 294 291 290 289 291 294 299 301 301 300 298 297 298 299 299 300 300 300 300 298 295 292 290 290 290 290 291 292 293 292 291 291 292 294 295 293 290 289 287 284 281 278
289 292 293 292 292 291 291 296 300 300 295 291 294 295 295 296 298 299 298 298 297 296 294 291 289 289 289 290 291 291 291 291 291 291 291 292 292 291 292 291 287 284 281
284 285 288 290 292 291 291 294 296 300 298 293 291 294 295 296 297 298 298 296 297 298 296 293 291 290 289 290 289 289 288 289 290 291 291 291 291 290 290 289 287 287 285
282 281 282 286 292 293 294 296 296 298 300 297 294 293 294 294 296 298 298 298 298 298 298 294 291 290 290 289 289 290 289 289 290 291 290 290 290 290 289 288 287 287 286
281 280 282 287 291 294 295 296 297 300 302 300 297 296 296 293 294 296 296 298 297 297 297 296 293 291 289 289 289 290 291 290 290 291 290 289 288 289 289 287 286 286 285
278 281 283 284 289 293 297 297 294 299 300 299 298 297 296 293 291 291 292 294 294 295 295 295 293 293 292 291 290 290 291 291 290 290 290 289 289 288 288 286 286 286 285
278 281 282 283 286 290 295 298 295 297 299 298 299 296 295 294 292 290 290 292 293 294 295 295 292 291 290 291 291 291 292 292 292 291 291 290 288 287 286 285 285 285 285
278 280 281 283 285 286 289 292 292 295 298 296 296 297 293 292 292 291 289 292 294 295 294 293 291 288 288 289 289 291 291 292 293 293 292 291 289 287 286 285 285 284 284
277 279 280 283 284 284 285 286 287 292 295 296 298 297 295 295 294 293 292 292 294 295 295 294 292 290 289 289 289 290 293 294 294 294 294 293 291 289 288 288 287 287 285
277 277 279 282 283 285 285 285 286 288 291 293 297 297 295 295 295 295 294 292 292 292 293 292 291 290 290 291 289 289 291 292 293 293 294 294 293 292 290 289 289 289 288
277 279 278 280 281 282 282 283 285 288 290 290 293 294 292 292 292 293 293 292 291 290 289 290 291 291 292 292 291 290 290 291 291 292 292 293 292 292 291 290 290 290 290
275 277 278 279 280 280 281 282 285 287 288 289 290 292 293 292 291 292 294 294 292 291 291 292 293 294 294 294 292 291 290 290 291 291 292 292 292 291 291 291 291 291 291
275 276 278 277 279 281 282 284 285 286 288 289 289 290 290 291 292 294 295 294 294 293 294 295 294 295 293 292 292 291 290 289 290 291 292 292 293 293 292 292 292 292 291
274 276 278 279 280 280 282 284 286 286 286 287 290 289 288 288 291 292 293 291 292 294 294 294 295 294 294 293 292 291 292 291 291 292 291 291 292 293 293 292 292 291 290
274 276 278 279 280 280 281 283 285 285 285 287 289 289 288 289 290 291 291 290 292 293 293 293 293 293 294 294 292 291 291 291 291 292 292 291 291 292 293 293 292 292 291
276 278 280 280 280 280 281 282 283 284 285 286 287 289 290 290 290 290 290 291 293 292 292 292 293 293 293 293 293 292 292 291 291 291 291 291 292 293 292 292 291 290 290
276 278 279 280 280 280 281 282 283 284 285 286 287 289 289 289 290 289 289 290 291 292 292 293 293 293 293 293 292 291 291 290 291 290 290 291 291 291 291 290 290 289 289
277 279 280 280 281 281 281 282 283 284 285 287 288 289 290 290 289 289 289 290 290 290 291 292 293 293 292 292 292 291 291 290 290 290 291 291 291 291 290 290 289 288 288
278 278 278 279 280 281 282 283 285 286 287 288 289 290 290 290 290 290 290 290 291 291 291 292 293 294 292 292 292 292 292 292 290 290 291 291 290 290 290 289 289 288 287
277 278 278 278 279 281 282 285 286 287 288 288 289 290 291 291 290 290 291 291 291 291 291 292 292 292 292 290 290 291 291 292 291 290 291 291 291 290 289 289 288 288 287
277 279 279 279 280 282 284 286 288 289 289 290 291 291 291 291 290 290 291 292 293 292 292 292 292 292 292 292 292 291 291 292 291 291 291 291 290 289 288 288 288 288 287
279 280 280 281 282 284 285 287 289 290 291 292 293 293 293 292 292 292 292 293 293 293 293 292 292 292 292 293 293 293 293 293 292 292 292 292 291 289 288 288 287 288 288
278 279 280 283 285 287 290 291 292 292 293 294 294 295 295 294 294 294 294 294 295 295 294 294 293 293 294 295 296 295 294 294 293 292 291 291 290 290 289 289 288 288 286
277 279 281 285 288 290 292 294 294 294 294 294 295 296 297 297 297 297 297 297 297 297 296 295 295 295 296 297 297 297 296 296 295 294 292 290 289 289 288 288 288 288 287
278 281 284 286 289 290 292 294 296 296 295 295 297 298 299 299 300 300 299 299 299 298 298 298 297 297 297 297 297 297 297 297 297 296 295 293 291 290 289 289 288 287 287
281 282 284 286 288 290 292 294 296 296 296 297 298 299 300 301 302 302 302 302 301 300 300 300 300 299 299 299 298 299 299 299 298 297 296 295 293 291 290 290 289 288 287
Height
5888 5887 5886 5886 5885 5884 5882 5881 5880 5879 5878 5877 5876 5875 5874 5872 5871 5870 5869 5867 5866 5864 5863 5861 5860 5859 5857 5856 5854 5853 5852 5850 5849 5848 5846 5845 5843 5841 5840 5839 5837 5836 5835
5885 5884 5883 5883 5881 5880 5879 5878 5876 5875 5874 5873 5872 5871 5870 5869 5867 5866 5865 5863 5862 5860 5858 5857 5855 5854 5853 5851 5850 5848 5847 5845 5844 5843 5841 5839 5838 5836 5835 5833 5831 5830 5829
5881 5881 5880 5879 5877 5876 5875 5873 5872 5871 5870 5868 5868 5867 5866 5864 5863 5862 5860 5858 5857 5855 5854 5852 5850 5849 5847 5846 5844 5843 5841 5840 5839 5837 5836 5834 5832 5830 5829 5827 5826 5824 5822
5877 5876 5875 5874 5874 5873 5871 5869 5868 5866 5865 5864 5863 5862 5861 5860 5859 5857 5855 5854 5852 5850 5848 5847 5845 5843 5842 5840 5839 5837 5835 5834 5833 5831 5829 5828 5826 5824 5823 5821 5819 5818 5816
5873 5872 5871 5870 5870 5869 5867 5865 5863 5862 5860 5859 5858 5857 5856 5855 5854 5852 5850 5848 5847 5845 5843 5841 5840 5838 5836 5834 5833 5831 5829 5828 5826 5825 5823 5822 5820 5818 5816 5814 5813 5811 5810
5868 5867 5866 5866 5865 5864 5862 5860 5859 5857 5856 5854 5853 5851 5850 5849 5848 5846 5844 5843 5841 5839 5837 5835 5833 5832 5830 5828 5827 5825 5823 5821 5819 5818 5816 5815 5813 5811 5809 5807 5806 5804 5803
5863 5863 5862 5861 5861 5859 5857 5855 5854 5852 5851 5849 5847 5846 5844 5843 5842 5840 5838 5837 5835 5833 5831 5829 5827 5825 5823 5822 5820 5818 5816 5814 5813 5811 5809 5807 5805 5803 5801 5800 5798 5797 5795
5857 5857 5856 5855 5855 5854 5852 5850 5849 5847 5846 5843 5842 5840 5839 5837 5836 5834 5832 5830 5828 5826 5824 5822 5820 5818 5816 5815 5813 5811 5809 5807 5805 5804 5802 5799 5797 5795 5793 5792 5790 5788 5787
5851 5851 5850 5849 5849 5847 5845 5844 5843 5842 5840 5838 5836 5835 5833 5831 5829 5827 5825 5823 5821 5819 5817 5815 5813 5811 5809 5807 5806 5804 5802 5800 5798 5796 5793 5791 5789 5787 5785 5783 5781 5780 5778
5845 5844 5844 5843 5842 5841 5839 5838 5837 5836 5834 5832 5831 5829 5827 5825 5823 5821 5819 5816 5814 5812 5810 5808 5805 5804 5802 5800 5798 5797 5795 5793 5790 5788 5786 5783 5781 5779 5776 5775 5773 5771 5769
5838 5837 5837 5836 5835 5834 5833 5832 5831 5829 5828 5826 5825 5823 5821 5819 5816 5814 5811 5809 5806 5804 5802 5800 5798 5796 5794 5793 5791 5789 5787 5785 5783 5780 5778 5775 5773 5771 5768 5766 5764 5762 5760
5830 5830 5830 5829 5828 5827 5826 5825 5824 5823 5821 5820 5818 5816 5814 5812 5809 5806 5803 5801 5798 5796 5795 5793 5791 5789 5787 5785 5783 5781 5779 5777 5775 5772 5770 5768 5765 5762 5760 5757 5755 5753 5751
5823 5822 5821 5820 5820 5819 5819 5818 5816 5815 5814 5813 5811 5809 5807 5804 5801 5798 5796 5793 5791 5789 5787 5785 5783 5781 5778 5776 5774 5772 5770 5768 5766 5764 5761 5759 5756 5754 5751 5749 5746 5744 5741
5815 5814 5813 5813 5812 5811 5810 5809 5808 5807 5806 5804 5802 5800 5798 5796 5794 5791 5788 5786 5783 5781 5779 5777 5774 5772 5770 5768 5766 5763 5761 5759 5757 5755 5752 5750 5747 5744 5742 5739 5737 5734 5732
5807 5806 5806 5805 5804 5803 5802 5801 5800 5799 5798 5796 5794 5792 5790 5788 5785 5783 5780 5778 5775 5773 5771 5769 5766 5764 5762 5759 5757 5754 5752 5750 5747 5745 5743 5740 5737 5735 5732 5729 5727 5724 5722
5798 5798 5797 5796 5795 5794 5793 5792 5791 5790 5788 5787 5785 5783 5781 5778 5776 5774 5772 5769 5766 5764 5762 5760 5757 5755 5753 5750 5748 5745 5743 5740 5738 5735 5732 5730 5727 5724 5722 5719 5716 5714 5711
5789 5789 5788 5787 5786 5785 5784 5783 5782 5781 5779 5777 5775 5773 5771 5769 5767 5764 5762 5760 5757 5755 5753 5750 5748 5745 5743 5740 5738 5735 5732 5730 5727 5724 5722 5719 5716 5713 5711 5708 5705 5703 5700
5781 5780 5779 5778 5777 5776 5775 5774 5773 5771 5769 5767 5765 5763 5761 5759 5756 5754 5752 5750 5747 5745 5743 5740 5738 5735 5732 5730 5727 5725 5722 5719 5716 5713 5710 5707 5704 5702 5699 5696 5693 5691 5688
5772 5772 5771 5770 5768 5767 5766 5765 5763 5762 5760 5758 5756 5753 5751 5748 5746 5744 5742 5740 5737 5735 5732 5730 5727 5724 5721 5719 5716 5713 5710 5707 5704 5701 5699 5696 5692 5689 5687 5684 5681 5678 5676
5764 5763 5762 5761 5760 5758 5757 5756 5754 5752 5751 5748 5746 5743 5740 5738 5736 5734 5732 5729 5727 5724 5722 5719 5716 5713 5710 5707 5704 5701 5698 5695 5692 5689 5686 5683 5680 5677 5674 5672 5669 5667 5664
5756 5755 5754 5753 5751 5750 5748 5747 5745 5743 5741 5739 5736 5733 5731 5728 5726 5724 5721 5719 5717 5714 5711 5708 5705 5702 5699 5696 5693 5689 5686 5683 5680 5677 5674 5671 5668 5665 5662 5660 5657 5655 5652
5747 5746 5745 5744 5743 5742 5740 5738 5736 5734 5732 5730 5727 5724 5722 5719 5716 5714 5711 5709 5706 5703 5700 5697 5694 5691 5687 5684 5681 5678 5674 5671 5668 5665 5662 5659 5656 5653 5650 5647 5645 5643 5640
5738 5738 5737 5736 5735 5733 5732 5730 5728 5726 5723 5721 5718 5716 5713 5710 5707 5704 5701 5698 5695 5692 5689 5686 5683 5679 5676 5672 5669 5666 5662 5659 5655 5652 5649 5646 5643 5641 5638 5635 5633 5630 5628
5730 5730 5729 5728 5727 5725 5724 5722 5719 5717 5715 5712 5710 5707 5704 5701 5698 5695 5691 5688 5685 5682 5678 5675 5671 5668 5664 5661 5657 5654 5650 5646 5643 5639 5636 5633 5631 5628 5625 5623 5620 5618 5615
5723 5723 5722 5720 5719 5717 5715 5713 5711 5709 5706 5704 5701 5698 5695 5692 5688 5685 5682 5679 5675 5671 5668 5664 5660 5656 5653 5649 5646 5642 5638 5635 5630 5627 5623 5620 5617 5615 5612 5610 5608 5605 5603
5716 5715 5714 5712 5711 5709 5707 5705 5703 5701 5698 5695 5692 5689 5686 5683 5680 5676 5672 5669 5665 5661 5657 5653 5649 5645 5641 5637 5634 5630 5626 5622 5618 5614 5611 5607 5604 5602 5599 5597 5594 5592 5590